Startseite
Über Mich
AHP4
Galerie
Sehschlangen
Tourenbuch
Bookmarks
Elektronik
Bewertung
Geschichten
[Tagesmessung] [Jahreswerte] [Information]

Messwerte vom 23.04.2022

Die letzten Messwerte von 23:58:47 Uhr:
KategorieMesswert
Temperatur [°C]9
Luftdruck [mBar]991
Sonneneinstrahlung0
Wind [km/h]7 aus Nordost
Niederschlag [l/m²]0
rel.Luftfeucht.65.5%
CO2 [ppm]422

Diagramme
Messwerte vom 23.04.2022
Tagesaggregation
KategorieMinimumMaximumSchnittSumme
Temperatur [°C]51911.6660
Luftdruck [mBar]991995993.3739
Sonneneinstrahlung247128.9601
Wind [km/h]19
rF [%]34.195.362.8
Niederschlag [l/m²]0
CO2 [ppm]401424407.1
Einordnung alsVegetationstag

Messungen an benachbarten Tagen: Zur Jahresaggregation 2022
Tabelle aller Messwerte
UhrzeitTemperatur [°C]Luftdruck [mBar]SonneWind [km/h]RichtungRegen [l/m²]rF [%]CO2 [ppm]
00:01:47 11 995 0 2 NO 0 78.3 403
00:04:48 11 995 0 2 NO 0 78.1 407
00:07:46 11 995 0 6 N 0 77.7 407
00:10:45 11 995 0 1 O 0 77.5 404
00:13:48 11 995 0 3 SO 0 77.4 407
00:16:45 11 994 0 2 O 0 77.1 407
00:19:46 11 994 0 4 N 0 77.3 407
00:22:47 11 994 0 2 SO 0 77.1 406
00:25:47 11 995 0 6 W 0 76.8 404
00:28:47 11 995 0 3 NO 0 76.3 407
00:31:47 11 995 0 1 SW 0 75.8 407
00:34:47 11 995 0 5 NO 0 75.2 407
00:37:47 11 995 0 8 SO 0 74.8 407
00:40:47 11 995 0 4 SO 0 74.4 403
00:43:45 11 994 0 5 SO 0 74.4 406
00:46:46 10 995 0 3 W 0 74.5 404
00:49:46 10 995 0 2 NO 0 75 404
00:52:46 10 995 0 0 O 0 75.4 404
00:55:45 10 994 0 1 O 0 75.8 404
00:58:44 10 995 0 1 O 0 76.1 401
01:01:46 9 995 0 2 O 0 76.7 407
01:04:44 9 995 0 0 W 0 76.9 407
01:07:45 9 995 0 0 N 0 77.2 401
01:10:47 9 995 0 2 S 0 78 404
01:13:45 9 995 0 2 O 0 78.4 406
01:16:45 9 994 0 2 O 0 78.7 404
01:19:46 9 995 0 2 O 0 78.8 407
01:22:46 9 994 0 3 NO 0 78.6 403
01:25:47 9 995 0 0 NO 0 78.6 405
01:28:47 9 994 0 1 NO 0 78.8 407
01:31:47 9 995 0 2 O 0 78.9 407
01:34:45 9 995 0 2 N 0 78.9 403
01:37:45 9 995 0 3 N 0 79.2 407
01:40:47 9 995 0 2 SO 0 79.3 404
01:43:43 9 995 0 1 N 0 79.4 404
01:46:44 8 994 0 2 O 0 79.4 407
01:49:45 8 994 0 1 O 0 79.4 408
01:52:44 9 995 0 1 N 0 79 404
01:55:46 8 995 0 2 N 0 78.9 407
01:58:46 8 994 0 1 O 0 79 406
02:01:48 8 995 0 2 O 0 79.3 404
02:04:47 8 994 0 2 SO 0 79.3 407
02:07:46 8 995 0 2 NO 0 79.2 407
02:10:47 8 995 0 1 O 0 79.2 404
02:13:46 8 995 0 1 SO 0 79.2 404
02:16:46 8 995 0 0 O 0 79.2 403
02:19:47 8 995 0 2 O 0 79.5 406
02:22:45 8 995 0 1 S 0 79.7 404
02:25:44 8 995 0 1 O 0 80 404
02:28:47 8 995 0 4 N 0 80.2 407
02:31:46 8 994 0 2 O 0 80.2 407
02:34:45 8 995 0 2 0 80.4 404
02:37:46 8 995 0 1 O 0 80.7 407
02:40:46 8 995 0 3 N 0 80.9 406
02:43:46 8 995 0 1 O 0 81.3 407
02:49:49 7 995 0 0 SO 0 82 407
02:52:46 7 994 0 2 SO 0 82.4 404
02:55:49 7 995 0 0 SO 0 83.3 407
02:58:46 7 994 0 2 O 0 83.8 404
03:01:44 7 995 0 2 O 0 84.2 407
03:04:46 7 994 0 1 NO 0 84 404
03:07:49 7 994 0 5 SO 0 83.2 404
03:10:47 7 994 0 3 O 0 82.2 407
03:13:45 7 995 0 2 S 0 81.8 407
03:16:44 7 995 0 2 SO 0 81.5 407
03:28:45 7 995 0 2 NO 0 81.9 404
03:31:45 7 995 0 1 O 0 82.5 407
03:34:45 7 995 0 1 O 0 83 404
03:37:46 7 994 0 1 NO 0 83.4 407
03:40:46 7 995 0 3 NO 0 83.7 404
03:43:46 7 994 0 3 NO 0 84 406
03:46:44 7 994 0 3 NO 0 84.2 403
03:49:45 7 994 0 0 O 0 84.4 404
03:52:46 7 994 0 2 O 0 84.5 407
03:55:44 7 995 0 1 NO 0 84.8 407
03:58:46 7 994 0 2 O 0 85.1 403
04:01:47 6 995 0 0 SO 0 85.6 403
04:04:47 6 995 0 0 NO 0 86.1 405
04:07:46 6 995 0 0 NO 0 86.7 404
04:10:45 6 995 0 0 N 0 86.9 408
04:13:47 6 995 0 3 NO 0 87.3 406
04:16:48 6 995 0 1 NW 0 87.6 409
04:19:47 6 995 0 1 NO 0 87.8 407
04:22:46 6 995 0 1 N 0 87.9 406
04:25:47 6 995 0 1 O 0 88.2 408
04:28:46 6 995 0 2 O 0 88.5 407
04:31:48 6 995 0 0 NO 0 88.8 408
04:34:46 6 995 0 1 O 0 88.9 406
04:37:45 6 994 0 3 N 0 89 406
04:40:47 6 995 0 2 NO 0 89.3 404
04:43:47 6 995 0 2 NO 0 89.6 405
04:46:45 6 995 0 2 O 0 89.8 404
04:49:45 6 995 0 3 N 0 90.1 407
04:52:47 6 995 0 4 SO 0 90.2 404
04:55:47 6 995 0 1 SO 0 90.2 406
04:58:45 6 995 0 3 N 0 90.4 404
05:01:45 6 994 0 4 O 0 90.6 407
05:04:44 6 995 0 3 0 90.5 407
05:07:46 6 995 0 3 N 0 90.5 404
05:10:46 6 994 0 1 O 0 90.5 404
05:13:46 6 995 0 5 NO 0 90.6 407
05:16:47 6 995 0 5 NO 0 90.6 404
05:19:45 6 994 0 1 O 0 90.6 407
05:22:47 6 995 0 4 N 0 90.5 405
05:25:47 6 995 0 4 N 0 90.8 401
05:28:44 5 995 0 3 N 0 91 404
05:31:45 5 995 0 1 O 0 91 404
05:34:45 5 995 0 2 0 91.3 404
05:37:44 5 995 4 1 NO 0 91.5 407
05:40:47 5 995 6 1 O 0 91.8 404
05:43:47 5 995 10 2 W 0 91.8 405
05:46:46 5 995 15 3 N 0 91.9 404
05:49:48 5 995 22 1 NO 0 92.3 406
05:52:47 5 994 31 1 NO 0 92.5 404
05:55:45 5 995 41 3 O 0 92.6 404
05:58:47 5 995 52 1 NO 0 92.8 404
06:01:47 5 995 64 2 NO 0 93.3 412
06:04:46 5 995 76 4 NO 0 93.3 406
06:07:47 5 995 87 4 N 0 93.9 404
06:10:48 5 995 97 5 NO 0 93.9 407
06:13:47 5 995 107 2 N 0 93.9 404
06:16:49 5 995 116 2 SO 0 94 407
06:19:48 5 995 124 5 N 0 94.4 404
06:22:46 5 995 131 3 N 0 94.4 406
06:25:47 5 995 137 0 O 0 94.4 406
06:28:46 5 995 143 0 SO 0 94.5 407
06:31:48 5 995 148 1 O 0 94.5 404
06:34:49 5 995 152 2 NO 0 94 404
06:37:47 5 995 156 2 SW 0 92.9 407
06:40:48 5 995 160 1 S 0 93 412
06:43:47 5 995 163 1 N 0 93.5 404
06:46:47 5 995 166 1 NO 0 94 409
06:49:47 5 995 168 1 O 0 94.6 407
06:52:46 5 995 170 1 O 0 94.8 407
06:55:47 5 995 172 1 O 0 95.3 407
06:58:45 5 995 174 2 O 0 95.3 404
07:01:48 5 995 175 1 O 0 95.1 406
07:04:45 5 995 177 3 O 0 95.2 404
07:07:47 6 995 178 2 O 0 94 406
07:10:48 7 995 179 2 SO 0 88.8 407
07:13:46 8 995 180 4 N 0 84.8 404
07:16:46 8 995 181 1 O 0 84.4 407
07:19:46 8 995 182 4 S 0 83 404
07:22:48 9 995 183 3 SO 0 80.4 407
07:25:46 8 995 184 2 N 0 79.2 406
07:28:48 8 995 184 5 SO 0 78.5 407
07:31:50 7 995 185 1 SO 0 83 404
07:34:47 7 995 186 6 O 0 85.7 403
07:37:49 6 995 186 1 O 0 86.1 404
07:40:46 6 995 186 3 O 0 87.1 403
07:43:46 6 995 187 1 NO 0 87.6 406
07:46:46 6 995 187 2 O 0 87.9 407
07:49:48 7 995 188 7 NO 0 87.7 404
07:52:48 7 995 188 3 O 0 87.3 407
07:55:46 7 995 188 5 O 0 87.3 403
07:58:47 7 995 189 6 NO 0 87.1 407
08:01:48 7 995 189 3 O 0 86.3 404
08:04:47 7 995 189 4 O 0 85.7 406
08:07:47 7 995 190 3 0 85.6 404
08:10:47 7 995 190 4 S 0 85.4 404
08:13:45 7 995 190 7 S 0 85.1 407
08:16:46 7 995 191 4 O 0 85.1 407
08:19:50 7 995 191 5 NW 0 85.1 404
08:22:48 7 995 191 5 NO 0 85 407
08:25:47 7 995 191 6 NO 0 84.5 404
08:28:45 7 995 192 4 NO 0 84.5 404
08:31:45 8 995 192 1 O 0 84.2 404
08:34:48 8 995 192 7 NO 0 83.3 404
08:37:47 8 995 192 5 SO 0 83 407
08:40:48 8 995 193 3 N 0 82.7 404
08:43:48 8 995 193 2 NO 0 82.5 404
08:46:48 8 995 193 7 O 0 81.9 407
08:49:47 8 995 193 2 NO 0 81.3 404
08:52:46 8 995 193 3 N 0 81 404
08:55:48 9 995 193 3 NW 0 80.5 404
08:58:47 9 995 194 3 N 0 80 407
09:01:46 9 995 194 2 O 0 79.7 407
09:04:48 9 995 194 3 O 0 79.3 403
09:07:48 9 995 194 6 S 0 78.7 404
09:10:46 9 995 194 4 0 77.7 407
09:13:47 9 995 194 3 W 0 76.7 407
09:16:48 9 995 194 3 NO 0 75.5 407
09:19:48 9 995 195 2 NO 0 74.8 407
09:22:48 10 995 195 3 W 0 74.5 407
09:25:46 10 995 195 4 NO 0 73.7 407
09:28:46 10 995 195 2 N 0 73.5 407
09:31:47 10 995 196 5 N 0 71.3 404
09:34:47 10 995 196 5 S 0 70.6 406
09:37:48 10 995 197 3 NO 0 71 404
09:40:47 10 995 197 3 SO 0 70.6 407
09:43:48 10 995 198 5 NO 0 68.7 407
09:46:32 9 995 199 2 SO 0 61.7 404
09:49:48 11 995 200 6 O 0 65.9 407
09:52:50 11 995 200 4 NO 0 65.8 407
09:55:46 11 995 201 10 O 0 65.3 403
09:58:48 11 995 202 7 O 0 63.3 407
10:01:50 11 995 202 6 O 0 65.6 407
10:04:47 11 995 203 7 O 0 65.5 406
10:07:47 11 995 203 7 S 0 64.4 404
10:10:50 11 995 204 7 SO 0 62.2 406
10:13:47 11 995 203 5 O 0 61.6 404
10:16:47 11 995 204 2 W 0 62.2 404
10:19:47 11 995 204 6 N 0 61.5 408
10:22:47 11 995 204 9 O 0 62.2 407
10:25:51 12 995 204 2 SO 0 62.3 407
10:28:47 12 995 204 3 S 0 62.4 401
10:31:48 12 995 204 15 NO 0 60.7 407
10:34:47 12 995 204 7 NO 0 59.4 403
10:37:47 12 995 204 3 O 0 57.4 407
10:40:46 12 995 204 7 S 0 57.5 404
10:43:47 12 995 205 6 S 0 58.5 405
10:46:46 12 995 204 3 NO 0 57.4 406
10:49:49 12 995 205 6 N 0 55.7 404
10:52:49 12 995 205 3 NO 0 56.6 407
10:55:48 12 995 205 4 NO 0 57.2 407
10:58:47 12 995 205 7 O 0 56.4 407
11:01:47 13 995 205 13 N 0 57 406
11:04:46 13 995 205 5 N 0 58.5 404
11:07:48 13 995 206 4 SO 0 55.9 404
11:10:48 13 995 206 7 SW 0 57.3 403
11:13:46 13 995 206 6 NO 0 57.7 407
11:16:47 13 995 206 9 NO 0 57.4 407
11:19:48 13 995 206 9 NO 0 56 406
11:22:46 13 995 206 4 NO 0 54.5 404
11:25:46 13 995 206 4 O 0 55.3 407
11:28:46 13 995 207 11 O 0 53.7 407
11:31:47 13 995 207 8 SO 0 53.5 407
11:34:48 13 994 207 5 NO 0 57.7 407
11:37:48 13 995 207 7 SO 0 55.5 404
11:40:47 13 995 207 8 S 0 56.9 404
11:43:48 13 995 207 5 NO 0 54.9 406
11:46:48 13 995 208 5 NO 0 54.6 407
11:49:47 13 995 208 1 O 0 55.6 404
11:52:46 14 995 209 5 S 0 55.6 402
11:55:49 14 995 210 2 S 0 52.9 404
11:58:48 14 995 210 12 N 0 52.8 408
12:01:48 14 995 211 7 N 0 52.7 404
12:04:46 14 995 209 4 S 0 53.3 404
12:07:46 14 995 210 6 O 0 52.5 405
12:10:46 15 994 211 4 O 0 51.1 407
12:13:49 15 994 211 15 N 0 49.6 407
12:16:47 15 995 211 5 O 0 49 403
12:19:46 15 995 211 10 O 0 49.5 404
12:22:47 15 995 212 6 O 0 48.9 407
12:25:45 15 995 213 3 N 0 48.7 401
12:28:46 15 995 213 7 O 0 48.9 407
12:31:46 15 994 213 9 NW 0 49.3 404
12:34:48 15 995 214 14 NO 0 49.1 410
12:37:49 15 995 214 7 NO 0 48.8 404
12:40:49 15 994 214 10 0 48.2 407
12:43:47 15 995 214 9 W 0 48.4 407
12:46:47 15 994 215 4 NO 0 49.2 407
12:49:47 16 994 215 6 NO 0 49.4 407
12:52:46 16 995 216 6 N 0 47.4 407
12:55:48 16 995 216 5 NW 0 46.7 407
12:58:49 16 995 216 5 NO 0 45.2 406
13:01:45 16 994 217 11 N 0 44.2 407
13:04:47 15 994 218 8 O 0 45.1 407
13:07:49 16 994 218 9 S 0 46.7 406
13:10:49 16 994 218 12 N 0 43.8 404
13:13:48 16 995 219 8 NO 0 43.8 404
13:16:48 16 995 219 5 NW 0 44.4 406
13:19:46 16 994 219 8 N 0 44 404
13:22:47 16 995 220 9 O 0 44.4 405
13:25:46 16 994 220 9 N 0 44.9 404
13:28:47 16 994 220 8 O 0 45.5 406
13:31:46 16 994 220 4 S 0 44 407
13:34:49 16 994 221 9 NW 0 44.2 401
13:37:50 16 994 222 6 SO 0 43.7 407
13:40:48 16 994 223 8 SO 0 43.7 406
13:43:48 17 994 224 10 NO 0 42.9 403
13:46:46 17 993 226 13 0 41.9 404
13:49:46 17 994 227 6 O 0 41.4 406
13:52:48 17 994 228 6 SO 0 42.1 404
13:55:47 17 994 230 10 N 0 41.6 404
13:58:49 17 994 230 6 NO 0 45.5 404
14:01:46 17 994 231 7 N 0 41.5 407
14:04:31 16 993 231 10 N 0 40 407
14:07:48 17 994 231 6 SO 0 39.8 407
14:10:47 17 994 231 5 NO 0 40.5 405
14:13:47 17 994 232 2 W 0 40.8 404
14:16:46 17 993 234 11 N 0 41 405
14:19:47 17 993 235 6 SO 0 39.7 404
14:22:50 18 994 235 4 NO 0 39.5 407
14:25:48 18 994 237 4 W 0 40.7 404
14:28:48 18 993 240 8 NO 0 40.8 407
14:31:47 19 993 241 7 SO 0 39.8 403
14:34:48 18 994 234 18 N 0 37.2 416
14:37:47 17 994 242 4 O 0 37.6 422
14:40:48 17 994 242 3 S 0 40.4 416
14:43:46 18 993 243 8 W 0 41.3 413
14:46:46 18 993 243 5 SO 0 39.7 412
14:49:48 18 993 243 7 O 0 38.1 417
14:52:48 18 993 243 7 NO 0 38.5 422
14:55:46 18 993 244 13 N 0 38.5 418
14:58:48 17 993 244 11 N 0 38.5 418
15:01:47 18 993 244 8 S 0 39.8 411
15:04:47 18 993 244 5 SO 0 37.2 415
15:07:48 18 993 245 9 NW 0 37.2 419
15:10:50 18 992 245 12 N 0 38.1 422
15:13:47 18 993 231 2 N 0 38.1 413
15:16:47 17 993 245 3 NW 0 38.6 406
15:19:47 17 992 245 4 W 0 38.4 406
15:22:49 18 992 245 10 SO 0 39.3 405
15:25:52 18 992 245 8 NO 0 37.6 410
15:28:47 18 993 245 4 NO 0 37.3 413
15:31:50 18 993 246 7 NW 0 37.7 405
15:34:50 18 992 246 7 NO 0 38.2 408
15:37:51 18 992 246 2 NO 0 36.7 410
15:40:46 18 991 246 4 SO 0 36.7 413
15:43:47 18 992 246 7 NW 0 35.7 413
15:46:49 18 992 246 3 S 0 38.2 419
15:49:48 18 992 246 5 O 0 38.2 410
15:52:49 18 992 246 5 SW 0 38 415
15:55:46 19 992 246 4 O 0 37.2 415
15:58:47 19 993 247 3 SO 0 36.9 413
16:01:49 18 991 247 7 SO 0 36.5 416
16:04:49 18 991 240 6 S 0 36.3 409
16:07:47 18 991 247 10 SO 0 36.2 410
16:10:47 18 992 247 11 NO 0 36.6 407
16:13:46 18 992 247 4 S 0 37 406
16:16:45 18 991 247 4 N 0 37.4 406
16:19:48 18 991 247 11 NW 0 36.6 407
16:22:47 18 992 247 8 NO 0 35.5 410
16:25:46 18 991 247 3 O 0 36.3 407
16:28:47 19 991 247 19 S 0 36.2 404
16:31:48 19 991 247 8 NO 0 35.5 407
16:34:46 19 991 247 4 O 0 34.8 407
16:37:48 19 991 247 6 SW 0 34.8 404
16:40:45 18 991 247 2 0 35.4 407
16:43:47 18 992 247 3 O 0 36.7 404
16:46:47 18 991 247 7 SO 0 37.3 407
16:49:47 18 991 247 7 O 0 37.4 404
16:52:48 19 991 247 4 0 38.3 404
16:55:34 17 991 247 8 NW 0 40 404
16:58:47 18 991 247 3 O 0 35.4 404
17:01:50 18 991 247 10 O 0 35.6 404
17:04:46 18 991 247 10 N 0 35.9 404
17:07:48 18 991 247 10 N 0 35.3 407
17:10:45 18 991 247 6 N 0 35.8 404
17:13:47 18 991 247 7 SO 0 37.2 404
17:16:45 18 991 247 9 0 37.4 407
17:19:49 18 991 247 17 NO 0 35.3 407
17:22:48 18 991 247 10 SW 0 35.3 404
17:25:47 18 991 247 4 O 0 36.7 404
17:28:48 18 991 247 5 SO 0 36.6 407
17:31:47 19 991 247 3 N 0 36.1 407
17:34:46 19 991 247 6 N 0 35.6 407
17:37:47 19 991 247 6 SO 0 35.1 404
17:40:47 19 991 247 10 NO 0 34.8 403
17:43:47 19 991 247 5 O 0 34.1 406
17:46:49 19 991 247 3 O 0 35 404
17:49:48 19 991 247 6 O 0 34.8 404
17:52:47 19 991 247 3 S 0 34.5 408
17:55:47 19 991 247 5 O 0 35.4 406
17:58:48 19 991 247 9 NW 0 34.7 406
18:01:48 19 991 247 4 NW 0 34.4 408
18:04:47 19 991 247 5 N 0 34.4 404
18:07:50 19 991 246 4 O 0 34.9 407
18:10:48 19 991 246 4 NO 0 34.8 408
18:13:47 18 991 246 4 NO 0 34.6 404
18:16:47 18 991 243 3 N 0 35.2 407
18:19:50 18 991 243 4 NO 0 36.4 405
18:22:47 18 991 242 9 O 0 37.2 403
18:25:48 17 991 232 7 NO 0 38 404
18:28:48 17 991 235 6 N 0 38.9 404
18:31:49 17 991 234 3 O 0 38.6 404
18:34:49 17 991 240 8 NO 0 39.4 407
18:37:46 17 991 243 6 N 0 39 407
18:40:48 17 991 242 5 S 0 38.9 404
18:43:46 16 991 239 4 W 0 39.7 404
18:46:47 16 991 238 7 S 0 40.5 404
18:49:48 16 991 233 3 SO 0 40.1 406
18:52:46 16 991 241 3 O 0 40.8 406
18:55:47 16 991 228 4 S 0 40.8 406
18:58:46 16 991 231 5 S 0 41.6 403
19:01:48 16 991 232 6 NO 0 41.6 404
19:04:47 16 991 228 4 NO 0 41.7 407
19:07:46 16 991 225 1 N 0 41.8 407
19:10:48 15 991 224 3 NO 0 42.2 405
19:13:46 15 991 228 8 NO 0 42.4 404
19:16:48 15 991 216 1 O 0 43.2 407
19:19:48 15 991 223 2 NO 0 43.7 404
19:22:47 15 991 213 4 N 0 44.1 404
19:25:48 15 991 207 3 O 0 44.8 407
19:28:47 15 991 205 5 SO 0 44.7 407
19:31:47 15 991 206 3 N 0 44.8 407
19:34:49 15 991 202 2 SW 0 44.8 407
19:37:48 15 991 205 2 NO 0 45.3 407
19:40:48 15 991 204 10 S 0 45.4 407
19:43:48 15 991 195 2 NO 0 45 408
19:46:45 15 991 193 9 S 0 45.6 404
19:49:49 14 991 188 6 NO 0 45.4 404
19:52:47 14 991 183 2 N 0 45.7 404
19:55:47 14 991 179 4 NO 0 46.4 410
19:58:48 14 991 175 6 NW 0 46.7 409
20:01:46 14 991 170 1 N 0 47.1 404
20:04:46 14 991 164 1 NO 0 47.7 409
20:07:48 14 991 158 2 N 0 48.4 403
20:10:47 13 991 151 0 S 0 48.7 403
20:13:48 13 991 143 2 O 0 48.9 407
20:16:46 13 991 135 1 O 0 49 404
20:19:50 13 991 125 0 SO 0 49.5 407
20:22:49 13 991 114 0 O 0 49.8 406
20:25:47 12 991 102 0 O 0 51 404
20:28:47 12 991 91 0 O 0 51.6 407
20:31:48 12 991 79 0 O 0 52.5 409
20:34:48 12 991 66 0 O 0 52.8 407
20:37:46 12 991 54 1 O 0 53.1 407
20:40:46 12 991 42 1 O 0 53.3 407
20:43:46 12 991 32 0 O 0 53.6 404
20:46:46 12 991 23 0 O 0 54.3 407
20:49:45 12 991 16 0 O 0 54.5 410
20:52:47 11 991 11 0 O 0 56 407
20:55:46 11 991 7 0 O 0 56.5 404
20:58:44 10 991 4 0 O 0 57.8 407
21:01:45 10 991 3 0 O 0 58.1 406
21:04:48 10 991 0 0 O 0 59 407
21:07:44 10 991 0 1 S 0 59.5 403
21:10:46 10 991 0 0 SO 0 59.3 404
21:13:45 10 991 0 0 O 0 58.9 404
21:16:47 11 991 0 0 NO 0 58.9 410
21:19:45 11 991 0 1 O 0 58.3 410
21:22:45 11 991 0 1 NO 0 57.8 409
21:25:47 11 991 0 0 SO 0 57.2 413
21:28:45 11 991 0 0 N 0 57 410
21:31:47 11 991 0 1 NO 0 57 413
21:34:47 11 991 0 0 NO 0 57.6 413
21:37:46 10 991 0 0 NO 0 58.1 413
21:40:46 10 991 0 0 NO 0 58.5 413
21:43:47 10 991 0 1 0 59 410
21:46:47 10 991 0 2 NW 0 60 410
21:49:47 10 991 0 0 NW 0 59.9 411
21:52:46 10 991 0 0 O 0 59.4 406
21:55:47 10 991 0 1 NO 0 59.2 413
21:58:48 10 991 0 6 NW 0 59.3 416
22:01:45 11 991 0 4 0 59.2 415
22:04:47 11 991 0 3 N 0 59.1 413
22:07:47 11 991 0 2 NO 0 58.9 409
22:10:46 11 991 0 3 N 0 58.7 412
22:13:45 11 991 0 6 O 0 58.8 415
22:16:47 11 991 0 6 NO 0 58.8 419
22:19:46 11 991 0 6 SO 0 58.7 418
22:22:45 11 991 0 2 W 0 58.8 415
22:25:46 11 991 0 7 O 0 59 418
22:28:47 11 991 0 5 0 59.5 422
22:31:49 11 991 0 4 O 0 59.8 424
22:34:45 11 991 0 3 0 60.1 419
22:37:45 11 991 0 5 N 0 60.5 415
22:40:46 11 991 0 4 NW 0 60.8 406
22:43:45 11 991 0 5 N 0 61.2 410
22:46:45 11 991 0 2 NO 0 61.8 416
22:49:48 11 991 0 8 NO 0 62.2 419
22:52:46 10 991 0 6 N 0 62.5 413
22:55:45 11 991 0 5 W 0 62.7 418
22:58:45 10 991 0 8 N 0 63.4 413
23:01:48 10 991 0 8 NO 0 63.5 416
23:04:44 10 991 0 8 0 63.9 415
23:07:46 10 991 0 2 N 0 64.4 416
23:10:45 10 991 0 4 NO 0 64.6 415
23:13:47 10 991 0 5 NO 0 65.1 416
23:16:46 10 991 0 10 N 0 65.4 412
23:19:47 10 991 0 8 NO 0 65.8 410
23:22:44 10 991 0 9 O 0 66 410
23:25:48 10 991 0 8 SW 0 65.9 422
23:28:45 10 991 0 4 O 0 65.7 424
23:31:47 10 991 0 10 NO 0 65.7 422
23:34:45 10 991 0 4 O 0 65.6 416
23:37:45 10 991 0 5 N 0 65.4 416
23:40:48 10 991 0 7 NW 0 65.1 415
23:43:48 10 991 0 10 NO 0 64.8 416
23:46:45 10 991 0 9 NO 0 64.6 413
23:49:47 10 991 0 9 N 0 64.7 416
23:52:44 10 991 0 4 N 0 64.8 418
23:55:45 9 991 0 10 O 0 65.1 416
23:58:47 9 991 0 7 NO 0 65.5 422

Letzte Änderung : 04-Jan-2022
Copyright Jens Köhler, Wolfsburg, Obere Dorfstraße 10d